| time (UTC) | temp C | wind direction | speed KPH | gust KPH | rain 1hr cm | rain 24hr cm | rain mn cm | humidity % | barometer mb |
| 20260905175100 | 26 | 222 | 4.8 | 16.1 | 0.00 | 0.03 | 0.00 | 36 | 1025.0 |
| 20260905174550 | 26 | 295 | 6.4 | 14.5 | 0.00 | 0.03 | 0.00 | 35 | 1025.1 |
| 20260905174058 | 26 | 296 | 4.8 | 17.7 | 0.00 | 0.03 | 0.00 | 37 | 1025.1 |
| 20260905173552 | 26 | 331 | 8.0 | 16.1 | 0.00 | 0.03 | 0.00 | 37 | 1025.2 |
| 20260905173043 | 26 | 298 | 6.4 | 16.1 | 0.00 | 0.03 | 0.00 | 37 | 1025.3 |
| 20260905172549 | 25 | 226 | 4.8 | 19.3 | 0.00 | 0.03 | 0.00 | 38 | 1025.3 |
| 20260905172057 | 25 | 296 | 14.5 | 19.3 | 0.00 | 0.03 | 0.00 | 38 | 1025.2 |
| 20260905171608 | 26 | 269 | 8.0 | 19.3 | 0.00 | 0.03 | 0.00 | 38 | 1025.3 |
| 20260905171056 | 26 | 184 | 4.8 | 12.9 | 0.00 | 0.03 | 0.00 | 39 | 1025.4 |
| 20260905170603 | 25 | 229 | 4.8 | 17.7 | 0.00 | 0.03 | 0.00 | 39 | 1025.3 |
| 20260905170055 | 25 | 290 | 11.3 | 17.7 | 0.00 | 0.03 | 0.00 | 39 | 1025.2 |
| 20260905165546 | 25 | 274 | 4.8 | 16.1 | 0.00 | 0.03 | 0.00 | 40 | 1025.3 |
| 20260905165053 | 25 | 212 | 4.8 | 16.1 | 0.00 | 0.03 | 0.00 | 40 | 1025.3 |
| 20260905164602 | 25 | 258 | 11.3 | 16.1 | 0.00 | 0.03 | 0.00 | 39 | 1025.2 |
| 20260905164009 | 25 | 306 | 3.2 | 12.9 | 0.00 | 0.03 | 0.00 | 41 | 1025.2 |
| 20260905163559 | 25 | 258 | 4.8 | 12.9 | 0.00 | 0.03 | 0.00 | 41 | 1025.2 |
| 20260905163003 | 25 | 236 | 4.8 | 9.7 | 0.00 | 0.03 | 0.00 | 42 | 1025.3 |
| 20260905162510 | 24 | 260 | 4.8 | 11.3 | 0.00 | 0.03 | 0.00 | 41 | 1025.3 |
| 20260905162018 | 24 | 316 | 1.6 | 8.0 | 0.00 | 0.03 | 0.00 | 43 | 1025.3 |
| 20260905161525 | 23 | 265 | 3.2 | 8.0 | 0.00 | 0.03 | 0.00 | 43 | 1025.3 |
| 20260905161033 | 23 | 168 | 0.0 | 9.7 | 0.00 | 0.03 | 0.00 | 45 | 1025.2 |
| 20260905160540 | 23 | 153 | 0.0 | 6.4 | 0.00 | 0.03 | 0.00 | 45 | 1025.2 |
| 20260905160049 | 23 | 174 | 1.6 | 6.4 | 0.00 | 0.03 | 0.00 | 47 | 1025.2 |
| 20260905155538 | 22 | 205 | 3.2 | 9.7 | 0.00 | 0.03 | 0.00 | 48 | 1025.1 |
| 20260905155045 | 22 | 162 | 6.4 | 9.7 | 0.00 | 0.03 | 0.00 | 49 | 1025.1 |
| 20260905154604 | 22 | 113 | 3.2 | 9.7 | 0.00 | 0.03 | 0.00 | 50 | 1025.1 |
| 20260905154102 | 22 | 120 | 4.8 | 9.7 | 0.00 | 0.03 | 0.00 | 50 | 1025.1 |
| 20260905153555 | 22 | 161 | 3.2 | 6.4 | 0.00 | 0.03 | 0.00 | 50 | 1025.1 |
| 20260905153105 | 22 | 143 | 3.2 | 9.7 | 0.00 | 0.03 | 0.00 | 50 | 1025.1 |
| 20260905152555 | 21 | 102 | 4.8 | 11.3 | 0.00 | 0.03 | 0.00 | 50 | 1025.1 |
| 20260905152045 | 21 | 138 | 3.2 | 9.7 | 0.00 | 0.03 | 0.00 | 51 | 1025.2 |
| 20260905151553 | 21 | 121 | 4.8 | 9.7 | 0.00 | 0.03 | 0.00 | 51 | 1025.0 |
| 20260905151101 | 21 | 112 | 4.8 | 11.3 | 0.00 | 0.03 | 0.00 | 51 | 1025.0 |
| 20260905150504 | 21 | 115 | 3.2 | 9.7 | 0.00 | 0.03 | 0.00 | 52 | 1024.9 |
| 20260905150113 | 20 | 118 | 4.8 | 9.7 | 0.00 | 0.03 | 0.00 | 53 | 1025.1 |
| 20260905145503 | 20 | 85 | 6.4 | 9.7 | 0.00 | 0.03 | 0.00 | 53 | 1024.9 |
| 20260905145059 | 20 | 102 | 3.2 | 11.3 | 0.00 | 0.03 | 0.00 | 54 | 1024.9 |
| 20260905144502 | 20 | 82 | 6.4 | 11.3 | 0.00 | 0.03 | 0.00 | 54 | 1024.8 |
| 20260905144101 | 19 | 97 | 3.2 | 11.3 | 0.00 | 0.03 | 0.00 | 54 | 1024.8 |
| 20260905143550 | 19 | 109 | 4.8 | 11.3 | 0.00 | 0.03 | 0.00 | 56 | 1024.8 |
| 20260905143058 | 18 | 155 | 4.8 | 9.7 | 0.00 | 0.03 | 0.00 | 55 | 1024.8 |
| 20260905142501 | 18 | 116 | 4.8 | 9.7 | 0.00 | 0.03 | 0.00 | 56 | 1024.8 |
| 20260905142009 | 18 | 127 | 4.8 | 9.7 | 0.00 | 0.03 | 0.00 | 56 | 1024.8 |
| 20260905141607 | 18 | 118 | 4.8 | 9.7 | 0.00 | 0.03 | 0.00 | 56 | 1024.8 |
| 20260905141011 | 17 | 82 | 3.2 | 6.4 | 0.00 | 0.03 | 0.00 | 57 | 1024.9 |
| 20260905140519 | 17 | 111 | 4.8 | 9.7 | 0.00 | 0.03 | 0.00 | 57 | 1024.8 |
| 20260905135502 | 17 | 121 | 3.2 | 9.7 | 0.00 | 0.03 | 0.00 | 58 | 1024.7 |
| 20260905135012 | 16 | 123 | 4.8 | 9.7 | 0.00 | 0.03 | 0.00 | 59 | 1024.6 |
| 20260905134605 | 16 | 117 | 4.8 | 9.7 | 0.00 | 0.03 | 0.00 | 59 | 1024.5 |
| 20260905134008 | 16 | 130 | 1.6 | 9.7 | 0.00 | 0.03 | 0.00 | 61 | 1024.4 |
| 20260905133604 | 16 | 114 | 1.6 | 9.7 | 0.00 | 0.03 | 0.00 | 61 | 1024.3 |
| 20260905133007 | 15 | 113 | 4.8 | 9.7 | 0.00 | 0.03 | 0.00 | 62 | 1024.3 |
| 20260905132516 | 15 | 89 | 3.2 | 9.7 | 0.00 | 0.03 | 0.00 | 62 | 1024.2 |
| 20260905132021 | 15 | 109 | 4.8 | 9.7 | 0.00 | 0.03 | 0.00 | 63 | 1024.1 |
| 20260905131533 | 15 | 119 | 4.8 | 9.7 | 0.00 | 0.03 | 0.00 | 65 | 1024.1 |
| 20260905131037 | 15 | 113 | 4.8 | 9.7 | 0.00 | 0.03 | 0.00 | 65 | 1024.1 |
| 20260905130545 | 15 | 96 | 4.8 | 8.0 | 0.00 | 0.03 | 0.00 | 65 | 1024.0 |
| 20260905130036 | 15 | 101 | 4.8 | 9.7 | 0.00 | 0.03 | 0.00 | 65 | 1024.0 |
| 20260905125543 | 15 | 92 | 3.2 | 9.7 | 0.00 | 0.03 | 0.00 | 66 | 1023.9 |
| 20260905125051 | 15 | 101 | 3.2 | 9.7 | 0.00 | 0.03 | 0.00 | 67 | 1023.9 |
| 20260905124602 | 15 | 107 | 1.6 | 4.8 | 0.00 | 0.03 | 0.00 | 67 | 1023.9 |
| 20260905124049 | 15 | 107 | 1.6 | 4.8 | 0.00 | 0.03 | 0.00 | 67 | 1023.9 |
| 20260905123557 | 15 | 105 | 1.6 | 6.4 | 0.00 | 0.03 | 0.00 | 67 | 1023.8 |
| 20260905123051 | 15 | 109 | 3.2 | 6.4 | 0.00 | 0.03 | 0.00 | 68 | 1023.8 |
| 20260905122539 | 15 | 105 | 4.8 | 6.4 | 0.00 | 0.03 | 0.00 | 68 | 1023.7 |
| 20260905122047 | 15 | 102 | 3.2 | 4.8 | 0.00 | 0.03 | 0.00 | 67 | 1023.7 |
| 20260905121537 | 16 | 102 | 3.2 | 4.8 | 0.00 | 0.03 | 0.00 | 67 | 1023.6 |
| 20260905121047 | 16 | 102 | 3.2 | 4.8 | 0.00 | 0.03 | 0.00 | 67 | 1023.6 |
| 20260905120554 | 16 | 102 | 3.2 | 4.8 | 0.00 | 0.03 | 0.00 | 67 | 1023.6 |
| 20260905115554 | 16 | 102 | 3.2 | 4.8 | 0.00 | 0.03 | 0.00 | 65 | 1023.6 |
| 20260905115059 | 16 | 102 | 3.2 | 3.2 | 0.00 | 0.03 | 0.00 | 65 | 1023.5 |
| 20260905114502 | 16 | 64 | 1.6 | 3.2 | 0.00 | 0.03 | 0.00 | 64 | 1023.6 |
| 20260905114010 | 17 | 64 | 0.0 | 3.2 | 0.00 | 0.03 | 0.00 | 64 | 1023.6 |
| 20260905113502 | 17 | 64 | 0.0 | 3.2 | 0.00 | 0.03 | 0.00 | 64 | 1023.6 |
| 20260905113012 | 17 | 64 | 0.0 | 3.2 | 0.00 | 0.03 | 0.00 | 63 | 1023.5 |
| 20260905112504 | 17 | 64 | 0.0 | 4.8 | 0.00 | 0.03 | 0.00 | 64 | 1023.5 |
| 20260905112101 | 17 | 64 | 0.0 | 4.8 | 0.00 | 0.03 | 0.00 | 64 | 1023.5 |
| 20260905111501 | 17 | 64 | 1.6 | 6.4 | 0.00 | 0.03 | 0.00 | 64 | 1023.4 |
| 20260905111057 | 17 | 64 | 3.2 | 6.4 | 0.00 | 0.03 | 0.00 | 64 | 1023.4 |
| 20260905110543 | 17 | 75 | 1.6 | 6.4 | 0.00 | 0.03 | 0.00 | 64 | 1023.5 |
| 20260905110051 | 17 | 67 | 3.2 | 6.4 | 0.00 | 0.03 | 0.00 | 64 | 1023.3 |
| 20260905105600 | 17 | 69 | 3.2 | 6.4 | 0.00 | 0.03 | 0.00 | 64 | 1023.4 |
| 20260905105004 | 17 | 61 | 3.2 | 8.0 | 0.00 | 0.03 | 0.00 | 64 | 1023.4 |
| 20260905104559 | 17 | 63 | 3.2 | 8.0 | 0.00 | 0.03 | 0.00 | 64 | 1023.3 |
| 20260905104002 | 17 | 78 | 3.2 | 11.3 | 0.00 | 0.03 | 0.00 | 64 | 1023.3 |
| 20260905103557 | 17 | 82 | 4.8 | 11.3 | 0.00 | 0.03 | 0.00 | 64 | 1023.2 |
| 20260905103105 | 17 | 41 | 4.8 | 12.9 | 0.00 | 0.03 | 0.00 | 64 | 1023.3 |
| 20260905102558 | 17 | 79 | 6.4 | 12.9 | 0.00 | 0.03 | 0.00 | 64 | 1023.2 |
| 20260905102048 | 17 | 96 | 4.8 | 12.9 | 0.00 | 0.03 | 0.00 | 64 | 1023.2 |
| 20260905101556 | 17 | 94 | 4.8 | 9.7 | 0.00 | 0.03 | 0.00 | 64 | 1023.2 |
| 20260905101106 | 17 | 76 | 6.4 | 9.7 | 0.00 | 0.03 | 0.00 | 64 | 1023.1 |
| 20260905100506 | 17 | 79 | 4.8 | 9.7 | 0.00 | 0.03 | 0.00 | 64 | 1023.1 |
| 20260905100005 | 17 | 96 | 4.8 | 9.7 | 0.00 | 0.03 | 0.00 | 63 | 1023.1 |
| 20260905095600 | 17 | 96 | 3.2 | 11.3 | 0.00 | 0.03 | 0.00 | 63 | 1023.1 |
| 20260905095003 | 17 | 105 | 6.4 | 11.3 | 0.00 | 0.03 | 0.00 | 64 | 1023.1 |
| 20260905094601 | 17 | 109 | 6.4 | 9.7 | 0.00 | 0.03 | 0.00 | 64 | 1023.1 |
| 20260905094004 | 17 | 119 | 4.8 | 9.7 | 0.00 | 0.03 | 0.00 | 64 | 1023.0 |
| 20260905093512 | 17 | 126 | 3.2 | 6.4 | 0.00 | 0.03 | 0.00 | 63 | 1023.0 |
| 20260905093003 | 17 | 118 | 3.2 | 8.0 | 0.00 | 0.03 | 0.00 | 63 | 1022.9 |
| 20260905092509 | 17 | 94 | 4.8 | 8.0 | 0.00 | 0.03 | 0.00 | 63 | 1022.8 |
| 20260905092015 | 17 | 92 | 3.2 | 8.0 | 0.00 | 0.03 | 0.00 | 63 | 1022.8 |
| 20260905091524 | 17 | 91 | 4.8 | 9.7 | 0.00 | 0.03 | 0.00 | 63 | 1022.7 |
| 20260905091031 | 17 | 93 | 4.8 | 8.0 | 0.00 | 0.03 | 0.00 | 63 | 1022.8 |
| 20260905090539 | 18 | 82 | 3.2 | 6.4 | 0.00 | 0.03 | 0.00 | 63 | 1022.8 |
| 20260905090047 | 18 | 85 | 3.2 | 6.4 | 0.00 | 0.03 | 0.00 | 63 | 1022.8 |
| 20260905085553 | 18 | 125 | 3.2 | 6.4 | 0.00 | 0.03 | 0.00 | 63 | 1022.8 |
| 20260905085101 | 18 | 115 | 3.2 | 9.7 | 0.00 | 0.03 | 0.00 | 63 | 1022.8 |
| 20260905084503 | 18 | 96 | 4.8 | 9.7 | 0.00 | 0.03 | 0.00 | 63 | 1022.9 |
| 20260905084101 | 18 | 100 | 3.2 | 6.4 | 0.00 | 0.03 | 0.00 | 63 | 1022.9 |
| 20260905083500 | 18 | 120 | 1.6 | 6.4 | 0.00 | 0.03 | 0.00 | 63 | 1022.8 |
| 20260905083057 | 18 | 120 | 3.2 | 6.4 | 0.00 | 0.03 | 0.00 | 63 | 1022.7 |
| 20260905082604 | 18 | 111 | 3.2 | 6.4 | 0.00 | 0.03 | 0.00 | 63 | 1022.8 |
| 20260905082057 | 18 | 111 | 3.2 | 6.4 | 0.00 | 0.03 | 0.00 | 63 | 1022.7 |
| 20260905081548 | 18 | 115 | 3.2 | 6.4 | 0.00 | 0.03 | 0.00 | 63 | 1022.8 |
| 20260905081056 | 18 | 115 | 3.2 | 4.8 | 0.00 | 0.03 | 0.00 | 63 | 1022.8 |
| 20260905080547 | 18 | 109 | 3.2 | 4.8 | 0.00 | 0.03 | 0.00 | 62 | 1022.8 |
| 20260905080055 | 18 | 113 | 3.2 | 6.4 | 0.00 | 0.03 | 0.00 | 62 | 1022.7 |
| 20260905075604 | 18 | 109 | 4.8 | 6.4 | 0.00 | 0.03 | 0.00 | 62 | 1022.8 |
| 20260905075005 | 18 | 127 | 3.2 | 6.4 | 0.00 | 0.03 | 0.00 | 62 | 1022.8 |
| 20260905074601 | 18 | 126 | 3.2 | 6.4 | 0.00 | 0.03 | 0.00 | 62 | 1022.8 |
| 20260905074005 | 18 | 141 | 4.8 | 6.4 | 0.00 | 0.03 | 0.00 | 61 | 1022.8 |
| 20260905073602 | 18 | 137 | 3.2 | 4.8 | 0.00 | 0.03 | 0.00 | 61 | 1022.8 |
| 20260905073005 | 19 | 126 | 3.2 | 6.4 | 0.00 | 0.03 | 0.00 | 61 | 1022.8 |
| 20260905072606 | 19 | 123 | 4.8 | 6.4 | 0.00 | 0.03 | 0.00 | 61 | 1022.9 |
| 20260905072053 | 19 | 126 | 3.2 | 4.8 | 0.00 | 0.03 | 0.00 | 60 | 1022.8 |
| 20260905071607 | 19 | 130 | 3.2 | 4.8 | 0.00 | 0.03 | 0.00 | 60 | 1022.8 |
| 20260905071054 | 19 | 130 | 3.2 | 4.8 | 0.00 | 0.03 | 0.00 | 60 | 1022.8 |
| 20260905070545 | 19 | 130 | 1.6 | 11.3 | 0.00 | 0.03 | 0.00 | 59 | 1022.8 |
| 20260905070053 | 19 | 130 | 3.2 | 11.3 | 0.00 | 0.03 | 0.00 | 59 | 1022.9 |
| 20260905065543 | 20 | 51 | 0.0 | 3.2 | 0.00 | 0.03 | 0.00 | 57 | 1022.8 |
| 20260905065051 | 20 | 51 | 0.0 | 0.0 | 0.00 | 0.03 | 0.00 | 57 | 1022.8 |
| 20260905064600 | 20 | 51 | 0.0 | 3.2 | 0.00 | 0.03 | 0.00 | 57 | 1022.6 |
| 20260905064004 | 20 | 51 | 0.0 | 3.2 | 0.00 | 0.03 | 0.00 | 58 | 1022.6 |
| 20260905063557 | 20 | 51 | 0.0 | 3.2 | 0.00 | 0.03 | 0.00 | 58 | 1022.6 |
| 20260905063002 | 20 | 51 | 1.6 | 4.8 | 0.00 | 0.03 | 0.00 | 59 | 1022.6 |
| 20260905062557 | 20 | 49 | 1.6 | 4.8 | 0.00 | 0.03 | 0.00 | 59 | 1022.6 |
| 20260905062046 | 20 | 22 | 1.6 | 6.4 | 0.00 | 0.03 | 0.00 | 59 | 1022.6 |
| 20260905061606 | 21 | 355 | 3.2 | 9.7 | 0.00 | 0.03 | 0.00 | 58 | 1022.6 |
| 20260905061102 | 21 | 338 | 4.8 | 8.0 | 0.00 | 0.03 | 0.00 | 57 | 1022.6 |
| 20260905060504 | 21 | 333 | 3.2 | 9.7 | 0.00 | 0.03 | 0.00 | 56 | 1022.6 |
| 20260905060003 | 21 | 308 | 6.4 | 14.5 | 0.00 | 0.03 | 0.00 | 55 | 1022.7 |
| 20260905055556 | 21 | 295 | 8.0 | 14.5 | 0.00 | 0.03 | 0.03 | 54 | 1022.7 |
| 20260905055105 | 21 | 311 | 4.8 | 9.7 | 0.00 | 0.03 | 0.03 | 55 | 1022.8 |
| 20260905054558 | 21 | 299 | 4.8 | 11.3 | 0.00 | 0.03 | 0.03 | 54 | 1022.8 |
| 20260905054002 | 21 | 286 | 6.4 | 16.1 | 0.00 | 0.03 | 0.03 | 54 | 1022.9 |
| 20260905053559 | 21 | 287 | 8.0 | 16.1 | 0.00 | 0.03 | 0.03 | 54 | 1022.8 |
| 20260905053002 | 21 | 247 | 6.4 | 12.9 | 0.00 | 0.03 | 0.03 | 55 | 1022.7 |
| 20260905052509 | 21 | 277 | 4.8 | 17.7 | 0.00 | 0.03 | 0.03 | 55 | 1022.7 |
| 20260905052106 | 21 | 284 | 9.7 | 17.7 | 0.00 | 0.03 | 0.03 | 55 | 1022.8 |
| 20260905051507 | 21 | 304 | 4.8 | 14.5 | 0.00 | 0.03 | 0.03 | 55 | 1022.8 |
| 20260905051106 | 21 | 291 | 8.0 | 14.5 | 0.00 | 0.03 | 0.03 | 54 | 1022.9 |
| 20260905050508 | 21 | 250 | 4.8 | 14.5 | 0.00 | 0.03 | 0.03 | 54 | 1022.8 |
| 20260905050104 | 21 | 190 | 4.8 | 12.9 | 0.00 | 0.03 | 0.03 | 54 | 1022.6 |
| 20260905045556 | 21 | 156 | 8.0 | 17.7 | 0.00 | 0.03 | 0.03 | 54 | 1022.5 |
| 20260905045102 | 21 | 162 | 11.3 | 19.3 | 0.00 | 0.03 | 0.03 | 54 | 1022.5 |
| 20260905044509 | 21 | 153 | 12.9 | 19.3 | 0.00 | 0.03 | 0.03 | 53 | 1022.4 |
| 20260905044014 | 22 | 163 | 12.9 | 19.3 | 0.00 | 0.03 | 0.03 | 52 | 1022.5 |
| 20260905043503 | 22 | 148 | 9.7 | 19.3 | 0.00 | 0.03 | 0.03 | 51 | 1022.5 |
| 20260905043008 | 22 | 150 | 11.3 | 19.3 | 0.00 | 0.03 | 0.03 | 49 | 1022.4 |
| 20260905042605 | 22 | 153 | 9.7 | 17.7 | 0.00 | 0.03 | 0.03 | 47 | 1022.3 |
| 20260905042057 | 22 | 160 | 4.8 | 6.4 | 0.00 | 0.03 | 0.03 | 44 | 1022.1 |
| 20260905041613 | 22 | 155 | 3.2 | 4.8 | 0.00 | 0.03 | 0.03 | 44 | 1022.0 |
| 20260905041053 | 22 | 207 | 1.6 | 3.2 | 0.00 | 0.03 | 0.03 | 44 | 1022.0 |
| 20260905040603 | 22 | 207 | 1.6 | 3.2 | 0.00 | 0.03 | 0.03 | 44 | 1021.9 |
| 20260905040058 | 23 | 207 | 1.6 | 3.2 | 0.00 | 0.03 | 0.03 | 44 | 1022.1 |
| 20260905035544 | 23 | 207 | 0.0 | 3.2 | 0.00 | 0.03 | 0.03 | 44 | 1022.1 |
| 20260905035051 | 23 | 207 | 0.0 | 3.2 | 0.00 | 0.03 | 0.03 | 44 | 1022.0 |
| 20260905034603 | 23 | 207 | 0.0 | 3.2 | 0.00 | 0.03 | 0.03 | 46 | 1022.1 |
| 20260905034003 | 23 | 207 | 0.0 | 3.2 | 0.00 | 0.03 | 0.03 | 44 | 1022.0 |
| 20260905033600 | 23 | 207 | 1.6 | 3.2 | 0.00 | 0.03 | 0.03 | 44 | 1022.0 |
| 20260905033003 | 23 | 207 | 1.6 | 3.2 | 0.00 | 0.03 | 0.03 | 44 | 1022.0 |
| 20260905032601 | 23 | 207 | 1.6 | 3.2 | 0.00 | 0.03 | 0.03 | 44 | 1021.9 |
| 20260905032054 | 23 | 207 | 3.2 | 4.8 | 0.00 | 0.03 | 0.03 | 44 | 1022.0 |
| 20260905031559 | 23 | 194 | 1.6 | 4.8 | 0.00 | 0.03 | 0.03 | 45 | 1021.8 |
| 20260905031052 | 23 | 178 | 1.6 | 4.8 | 0.00 | 0.03 | 0.03 | 45 | 1021.9 |
| 20260905030600 | 23 | 202 | 1.6 | 3.2 | 0.00 | 0.03 | 0.03 | 45 | 1021.8 |
| 20260905025543 | 23 | 202 | 1.6 | 3.2 | 0.00 | 0.03 | 0.03 | 45 | 1021.7 |
| 20260905025050 | 23 | 202 | 1.6 | 3.2 | 0.00 | 0.03 | 0.03 | 45 | 1021.6 |
| 20260905024543 | 23 | 202 | 0.0 | 1.6 | 0.00 | 0.03 | 0.03 | 45 | 1021.5 |
| 20260905024051 | 23 | 202 | 0.0 | 3.2 | 0.00 | 0.03 | 0.03 | 44 | 1021.5 |
| 20260905023547 | 23 | 202 | 0.0 | 3.2 | 0.00 | 0.03 | 0.03 | 44 | 1021.3 |
| 20260905023035 | 23 | 202 | 0.0 | 3.2 | 0.00 | 0.03 | 0.03 | 44 | 1021.3 |
| 20260905022541 | 23 | 202 | 0.0 | 3.2 | 0.00 | 0.03 | 0.03 | 44 | 1021.1 |
| 20260905022049 | 23 | 202 | 0.0 | 3.2 | 0.00 | 0.03 | 0.03 | 44 | 1021.0 |
| 20260905021558 | 23 | 202 | 0.0 | 1.6 | 0.00 | 0.03 | 0.03 | 45 | 1021.0 |
| 20260905021002 | 24 | 202 | 0.0 | 1.6 | 0.00 | 0.03 | 0.03 | 45 | 1021.0 |
| 20260905020507 | 24 | 202 | 0.0 | 1.6 | 0.00 | 0.03 | 0.03 | 44 | 1020.9 |
| 20260905020109 | 24 | 202 | 0.0 | 1.6 | 0.00 | 0.03 | 0.03 | 44 | 1020.9 |
| 20260905015548 | 25 | 202 | 0.0 | 1.6 | 0.00 | 0.03 | 0.03 | 44 | 1020.9 |
| 20260905015056 | 25 | 202 | 1.6 | 1.6 | 0.00 | 0.03 | 0.03 | 43 | 1021.0 |
| 20260905014605 | 25 | 202 | 0.0 | 3.2 | 0.00 | 0.03 | 0.03 | 44 | 1020.9 |
| 20260905014007 | 25 | 202 | 0.0 | 3.2 | 0.00 | 0.03 | 0.03 | 43 | 1020.9 |
| 20260905013519 | 25 | 202 | 0.0 | 3.2 | 0.00 | 0.03 | 0.03 | 43 | 1020.9 |
| 20260905013030 | 25 | 202 | 0.0 | 3.2 | 0.00 | 0.03 | 0.03 | 43 | 1021.0 |
| 20260905012531 | 25 | 209 | 1.6 | 3.2 | 0.00 | 0.03 | 0.03 | 42 | 1021.1 |
| 20260905012039 | 25 | 208 | 1.6 | 4.8 | 0.00 | 0.03 | 0.03 | 42 | 1021.1 |
| 20260905011625 | 25 | 233 | 0.0 | 8.0 | 0.00 | 0.03 | 0.03 | 43 | 1021.1 |
| 20260905011055 | 26 | 228 | 3.2 | 8.0 | 0.03 | 0.03 | 0.03 | 42 | 1021.1 |
| 20260905010544 | 26 | 213 | 4.8 | 8.0 | 0.03 | 0.03 | 0.03 | 41 | 1021.1 |
| 20260905010053 | 26 | 206 | 1.6 | 8.0 | 0.03 | 0.03 | 0.03 | 42 | 1021.1 |
| 20260905005600 | 26 | 224 | 1.6 | 8.0 | 0.03 | 0.03 | 0.03 | 43 | 1021.1 |
| 20260905005004 | 26 | 219 | 3.2 | 12.9 | 0.03 | 0.03 | 0.03 | 42 | 1021.1 |
| 20260905004600 | 26 | 279 | 6.4 | 12.9 | 0.03 | 0.03 | 0.03 | 42 | 1021.1 |
| 20260905004002 | 26 | 188 | 6.4 | 11.3 | 0.03 | 0.03 | 0.03 | 43 | 1021.0 |
| 20260905003600 | 26 | 169 | 4.8 | 9.7 | 0.03 | 0.03 | 0.03 | 45 | 1021.0 |
| 20260905003003 | 26 | 194 | 4.8 | 12.9 | 0.03 | 0.03 | 0.03 | 46 | 1021.0 |
| 20260905002600 | 26 | 201 | 6.4 | 12.9 | 0.03 | 0.03 | 0.03 | 45 | 1021.1 |
| 20260905002051 | 26 | 66 | 6.4 | 24.1 | 0.03 | 0.03 | 0.03 | 40 | 1021.0 |
| 20260905001601 | 27 | 173 | 9.7 | 24.1 | 0.03 | 0.03 | 0.03 | 41 | 1021.0 |
| 20260905001050 | 28 | 169 | 6.4 | 9.7 | 0.00 | 0.00 | 0.00 | 37 | 1021.0 |
| 20260905000538 | 28 | 140 | 4.8 | 8.0 | 0.00 | 0.00 | 0.00 | 33 | 1021.0 |
| 20260905000046 | 28 | 190 | 3.2 | 9.7 | 0.00 | 0.00 | 0.00 | 32 | 1020.9 |
| 20260904235556 | 28 | 190 | 3.2 | 9.7 | 0.00 | 0.00 | 0.00 | 32 | 1020.7 |
| 20260904235103 | 28 | 170 | 1.6 | 8.0 | 0.00 | 0.00 | 0.00 | 32 | 1020.8 |
| 20260904234552 | 28 | 200 | 1.6 | 9.7 | 0.00 | 0.00 | 0.00 | 32 | 1020.8 |
| 20260904234101 | 28 | 109 | 3.2 | 11.3 | 0.00 | 0.00 | 0.00 | 32 | 1020.8 |
| 20260904233553 | 28 | 94 | 3.2 | 9.7 | 0.00 | 0.00 | 0.00 | 33 | 1020.9 |
| 20260904233103 | 28 | 110 | 1.6 | 9.7 | 0.00 | 0.00 | 0.00 | 33 | 1020.9 |
| 20260904232554 | 28 | 108 | 4.8 | 6.4 | 0.00 | 0.00 | 0.00 | 33 | 1020.8 |
| 20260904232101 | 28 | 34 | 1.6 | 6.4 | 0.00 | 0.00 | 0.00 | 33 | 1020.9 |
| 20260904231506 | 28 | 89 | 1.6 | 6.4 | 0.00 | 0.00 | 0.00 | 33 | 1021.0 |
| 20260904231100 | 28 | 126 | 1.6 | 9.7 | 0.00 | 0.00 | 0.00 | 33 | 1021.0 |
| 20260904230504 | 28 | 137 | 3.2 | 9.7 | 0.00 | 0.00 | 0.00 | 33 | 1021.0 |
| 20260904230059 | 28 | 152 | 4.8 | 9.7 | 0.00 | 0.00 | 0.00 | 33 | 1021.1 |
| 20260904225546 | 28 | 200 | 1.6 | 4.8 | 0.00 | 0.00 | 0.00 | 33 | 1021.1 |
| 20260904225057 | 28 | 188 | 0.0 | 8.0 | 0.00 | 0.00 | 0.00 | 33 | 1021.2 |
| 20260904224605 | 28 | 187 | 3.2 | 8.0 | 0.00 | 0.00 | 0.00 | 33 | 1021.1 |
| 20260904224007 | 28 | 100 | 3.2 | 12.9 | 0.00 | 0.00 | 0.00 | 33 | 1021.2 |
| 20260904223602 | 28 | 156 | 4.8 | 12.9 | 0.00 | 0.00 | 0.00 | 33 | 1021.1 |
| 20260904223004 | 28 | 167 | 6.4 | 14.5 | 0.00 | 0.00 | 0.00 | 32 | 1021.2 |
| 20260904222600 | 28 | 159 | 4.8 | 14.5 | 0.00 | 0.00 | 0.00 | 32 | 1021.3 |
| 20260904222002 | 28 | 173 | 4.8 | 9.7 | 0.00 | 0.00 | 0.00 | 32 | 1021.3 |
| 20260904221559 | 29 | 165 | 4.8 | 9.7 | 0.00 | 0.00 | 0.00 | 32 | 1021.4 |
| 20260904221002 | 29 | 204 | 1.6 | 6.4 | 0.00 | 0.00 | 0.00 | 31 | 1021.3 |
| 20260904220509 | 29 | 271 | 1.6 | 9.7 | 0.00 | 0.00 | 0.00 | 31 | 1021.4 |
| 20260904220108 | 29 | 240 | 1.6 | 9.7 | 0.00 | 0.00 | 0.00 | 31 | 1021.4 |
| 20260904215552 | 30 | 223 | 3.2 | 9.7 | 0.00 | 0.00 | 0.00 | 31 | 1021.4 |
| 20260904215104 | 30 | 184 | 1.6 | 9.7 | 0.00 | 0.00 | 0.00 | 31 | 1021.4 |
| 20260904214555 | 29 | 58 | 1.6 | 9.7 | 0.00 | 0.00 | 0.00 | 32 | 1021.4 |
| 20260904214101 | 28 | 111 | 1.6 | 14.5 | 0.00 | 0.00 | 0.00 | 33 | 1021.4 |
| 20260904213555 | 28 | 139 | 4.8 | 14.5 | 0.00 | 0.00 | 0.00 | 32 | 1021.5 |
| 20260904213108 | 29 | 126 | 8.0 | 14.5 | 0.00 | 0.00 | 0.00 | 33 | 1021.5 |
| 20260904212507 | 29 | 195 | 3.2 | 14.5 | 0.00 | 0.00 | 0.00 | 32 | 1021.6 |
| 20260904212101 | 29 | 134 | 9.7 | 14.5 | 0.00 | 0.00 | 0.00 | 33 | 1021.7 |
| 20260904211504 | 29 | 144 | 8.0 | 17.7 | 0.00 | 0.00 | 0.00 | 32 | 1021.7 |
| 20260904211059 | 30 | 116 | 6.4 | 17.7 | 0.00 | 0.00 | 0.00 | 31 | 1021.7 |
| 20260904210503 | 30 | 93 | 3.2 | 12.9 | 0.00 | 0.00 | 0.00 | 30 | 1021.8 |
| 20260904210101 | 31 | 101 | 6.4 | 14.5 | 0.00 | 0.00 | 0.00 | 30 | 1021.8 |
| 20260904205551 | 31 | 180 | 6.4 | 14.5 | 0.00 | 0.00 | 0.00 | 30 | 1021.9 |
| 20260904205059 | 31 | 174 | 6.4 | 14.5 | 0.00 | 0.00 | 0.00 | 30 | 1021.9 |
| 20260904204503 | 31 | 128 | 3.2 | 19.3 | 0.00 | 0.00 | 0.00 | 30 | 1022.1 |
| 20260904204010 | 31 | 169 | 4.8 | 19.3 | 0.00 | 0.00 | 0.00 | 30 | 1022.2 |
| 20260904203606 | 31 | 267 | 4.8 | 16.1 | 0.00 | 0.00 | 0.00 | 30 | 1022.2 |
| 20260904203015 | 30 | 296 | 6.4 | 14.5 | 0.00 | 0.00 | 0.00 | 30 | 1022.4 |
| 20260904202605 | 31 | 166 | 9.7 | 20.9 | 0.00 | 0.00 | 0.00 | 30 | 1022.2 |
| 20260904202006 | 31 | 190 | 9.7 | 19.3 | 0.00 | 0.00 | 0.00 | 29 | 1022.3 |
| 20260904201606 | 30 | 197 | 8.0 | 19.3 | 0.00 | 0.00 | 0.00 | 30 | 1022.3 |
| 20260904201054 | 30 | 220 | 4.8 | 12.9 | 0.00 | 0.00 | 0.00 | 32 | 1022.4 |
| 20260904200601 | 30 | 261 | 4.8 | 12.9 | 0.00 | 0.00 | 0.00 | 32 | 1022.4 |
| 20260904200004 | 30 | 214 | 1.6 | 8.0 | 0.00 | 0.00 | 0.00 | 31 | 1022.6 |
| 20260904195512 | 30 | 302 | 1.6 | 14.5 | 0.00 | 0.00 | 0.00 | 32 | 1022.6 |
| 20260904195107 | 29 | 269 | 4.8 | 14.5 | 0.00 | 0.00 | 0.00 | 31 | 1022.7 |
| 20260904194508 | 30 | 168 | 8.0 | 14.5 | 0.00 | 0.00 | 0.00 | 32 | 1022.8 |
| 20260904194104 | 29 | 195 | 4.8 | 11.3 | 0.00 | 0.00 | 0.00 | 31 | 1022.9 |
| 20260904193507 | 29 | 244 | 4.8 | 11.3 | 0.00 | 0.00 | 0.00 | 32 | 1023.0 |
| 20260904193103 | 30 | 235 | 4.8 | 14.5 | 0.00 | 0.00 | 0.00 | 32 | 1023.1 |
| 20260904192558 | 29 | 196 | 6.4 | 14.5 | 0.00 | 0.00 | 0.00 | 32 | 1023.1 |
| 20260904192045 | 29 | 61 | 0.0 | 9.7 | 0.00 | 0.00 | 0.00 | 33 | 1023.2 |
| 20260904191554 | 28 | 269 | 1.6 | 9.7 | 0.00 | 0.00 | 0.00 | 33 | 1023.2 |
| 20260904191101 | 28 | 169 | 1.6 | 11.3 | 0.00 | 0.00 | 0.00 | 34 | 1023.3 |
| 20260904190507 | 28 | 292 | 3.2 | 11.3 | 0.00 | 0.00 | 0.00 | 34 | 1023.3 |
| 20260904190058 | 28 | 225 | 1.6 | 14.5 | 0.00 | 0.00 | 0.00 | 34 | 1023.4 |
| 20260904185504 | 28 | 156 | 8.0 | 16.1 | 0.00 | 0.00 | 0.00 | 33 | 1023.4 |
| 20260904185059 | 28 | 147 | 9.7 | 19.3 | 0.00 | 0.00 | 0.00 | 34 | 1023.5 |
| 20260904184503 | 28 | 172 | 4.8 | 17.7 | 0.00 | 0.00 | 0.00 | 33 | 1023.5 |
| 20260904184100 | 28 | 213 | 4.8 | 17.7 | 0.00 | 0.00 | 0.00 | 33 | 1023.6 |
| 20260904183550 | 28 | 102 | 8.0 | 22.5 | 0.00 | 0.00 | 0.00 | 33 | 1023.6 |
| 20260904183113 | 28 | 180 | 9.7 | 17.7 | 0.00 | 0.00 | 0.00 | 33 | 1023.7 |
| 20260904182501 | 28 | 190 | 4.8 | 17.7 | 0.00 | 0.00 | 0.00 | 34 | 1023.8 |
| 20260904182012 | 27 | 204 | 8.0 | 14.5 | 0.00 | 0.00 | 0.00 | 35 | 1023.8 |
| 20260904181612 | 27 | 46 | 4.8 | 14.5 | 0.00 | 0.00 | 0.00 | 34 | 1023.9 |
| 20260904181008 | 28 | 203 | 8.0 | 14.5 | 0.00 | 0.00 | 0.00 | 34 | 1023.9 |
| 20260904180517 | 28 | 238 | 1.6 | 16.1 | 0.00 | 0.00 | 0.00 | 35 | 1024.0 |
| 20260904180059 | 27 | 200 | 6.4 | 12.9 | 0.00 | 0.00 | 0.00 | 36 | 1024.0 |
| 20260904175549 | 27 | 209 | 0.0 | 8.0 | 0.00 | 0.00 | 0.00 | 37 | 1024.1 |